| time (UTC) | temp C | wind direction | speed KPH | gust KPH | rain 1hr cm | rain 24hr cm | rain mn cm | humidity % | barometer mb |
| 20260906161555 | 25 | 117 | 4.8 | 19.3 | 0.00 | 0.00 | 0.00 | 70 | 1017.3 |
| 20260906160054 | 25 | 59 | 6.4 | 16.1 | 0.00 | 0.00 | 0.00 | 71 | 1017.2 |
| 20260906154547 | 25 | 67 | 4.8 | 11.3 | 0.00 | 0.00 | 0.00 | 75 | 1017.0 |
| 20260906153043 | 24 | 78 | 8.0 | 16.1 | 0.00 | 0.00 | 0.00 | 74 | 1017.0 |
| 20260906151540 | 23 | 71 | 6.4 | 17.7 | 0.00 | 0.00 | 0.00 | 75 | 1016.8 |
| 20260906150036 | 23 | 309 | 8.0 | 16.1 | 0.00 | 0.00 | 0.00 | 77 | 1016.8 |
| 20260906144530 | 23 | 107 | 6.4 | 17.7 | 0.00 | 0.00 | 0.00 | 79 | 1016.6 |
| 20260906143025 | 22 | 238 | 6.4 | 16.1 | 0.00 | 0.00 | 0.00 | 82 | 1016.6 |
| 20260906141522 | 22 | 33 | 4.8 | 14.5 | 0.00 | 0.00 | 0.00 | 83 | 1016.6 |
| 20260906140039 | 21 | 90 | 4.8 | 16.1 | 0.00 | 0.00 | 0.00 | 83 | 1016.8 |
| 20260906134520 | 21 | 118 | 8.0 | 14.5 | 0.00 | 0.00 | 0.00 | 85 | 1016.9 |
| 20260906133020 | 22 | 98 | 4.8 | 19.3 | 0.00 | 0.00 | 0.00 | 86 | 1017.0 |
| 20260906131515 | 21 | 52 | 4.8 | 14.5 | 0.00 | 0.00 | 0.00 | 89 | 1016.7 |
| 20260906130014 | 21 | 49 | 4.8 | 16.1 | 0.00 | 0.00 | 0.00 | 91 | 1016.4 |
| 20260906124512 | 21 | 76 | 8.0 | 12.9 | 0.00 | 0.00 | 0.00 | 93 | 1016.4 |
| 20260906123013 | 21 | 117 | 3.2 | 8.0 | 0.00 | 0.00 | 0.00 | 95 | 1016.2 |
| 20260906121504 | 20 | 337 | 1.6 | 9.7 | 0.00 | 0.00 | 0.00 | 96 | 1016.0 |
| 20260906120059 | 20 | 60 | 3.2 | 8.0 | 0.00 | 0.00 | 0.00 | 96 | 1015.6 |
| 20260906114533 | 21 | 21 | 4.8 | 12.9 | 0.00 | 0.00 | 0.00 | 96 | 1015.3 |
| 20260906113037 | 21 | 36 | 1.6 | 8.0 | 0.00 | 0.00 | 0.00 | 96 | 1015.1 |
| 20260906111525 | 21 | 17 | 1.6 | 9.7 | 0.00 | 0.00 | 0.00 | 97 | 1014.8 |
| 20260906110026 | 21 | 117 | 3.2 | 12.9 | 0.00 | 0.00 | 0.00 | 97 | 1014.8 |
| 20260906104524 | 21 | 86 | 1.6 | 12.9 | 0.00 | 0.00 | 0.00 | 97 | 1014.7 |
| 20260906103024 | 21 | 29 | 3.2 | 8.0 | 0.00 | 0.00 | 0.00 | 97 | 1014.7 |
| 20260906101523 | 21 | 355 | 3.2 | 8.0 | 0.00 | 0.00 | 0.00 | 97 | 1014.3 |
| 20260906100031 | 21 | 26 | 3.2 | 8.0 | 0.00 | 0.00 | 0.00 | 97 | 1014.3 |
| 20260906094521 | 21 | 59 | 3.2 | 6.4 | 0.00 | 0.00 | 0.00 | 96 | 1014.1 |
| 20260906093041 | 21 | 40 | 3.2 | 9.7 | 0.00 | 0.00 | 0.00 | 96 | 1014.1 |
| 20260906091520 | 21 | 28 | 1.6 | 8.0 | 0.00 | 0.00 | 0.00 | 96 | 1014.2 |
| 20260906090021 | 21 | 50 | 3.2 | 8.0 | 0.00 | 0.00 | 0.00 | 96 | 1014.4 |
| 20260906084520 | 21 | 93 | 1.6 | 9.7 | 0.00 | 0.00 | 0.00 | 95 | 1014.2 |
| 20260906083031 | 21 | 350 | 1.6 | 8.0 | 0.00 | 0.00 | 0.00 | 95 | 1014.4 |
| 20260906081519 | 21 | 61 | 3.2 | 9.7 | 0.00 | 0.00 | 0.00 | 95 | 1014.4 |
| 20260906080017 | 21 | 338 | 3.2 | 9.7 | 0.00 | 0.00 | 0.00 | 95 | 1014.4 |
| 20260906074532 | 21 | 51 | 1.6 | 11.3 | 0.00 | 0.00 | 0.00 | 96 | 1014.3 |
| 20260906073023 | 21 | 26 | 4.8 | 8.0 | 0.00 | 0.00 | 0.00 | 96 | 1014.3 |
| 20260906071515 | 21 | 38 | 8.0 | 16.1 | 0.00 | 0.00 | 0.00 | 96 | 1014.3 |
| 20260906070015 | 20 | 13 | 4.8 | 12.9 | 0.00 | 0.00 | 0.00 | 96 | 1014.5 |
| 20260906064515 | 20 | 29 | 1.6 | 9.7 | 0.00 | 0.00 | 0.00 | 96 | 1014.5 |
| 20260906063015 | 20 | 60 | 3.2 | 8.0 | 0.00 | 0.00 | 0.00 | 96 | 1014.6 |
| 20260906061513 | 20 | 32 | 4.8 | 9.7 | 0.00 | 0.00 | 0.00 | 96 | 1014.6 |
| 20260906060012 | 20 | 38 | 1.6 | 12.9 | 0.00 | 0.00 | 0.00 | 95 | 1014.7 |
| 20260906054511 | 20 | 68 | 4.8 | 12.9 | 0.00 | 0.00 | 0.00 | 95 | 1014.7 |
| 20260906053013 | 20 | 23 | 4.8 | 12.9 | 0.00 | 0.00 | 0.00 | 95 | 1014.4 |
| 20260906051506 | 21 | 24 | 1.6 | 9.7 | 0.00 | 0.00 | 0.00 | 95 | 1014.3 |
| 20260906050004 | 21 | 78 | 1.6 | 12.9 | 0.00 | 0.00 | 0.00 | 95 | 1014.1 |
| 20260906044620 | 21 | 77 | 3.2 | 12.9 | 0.00 | 0.00 | 0.00 | 94 | 1014.0 |
| 20260906043101 | 21 | 78 | 3.2 | 14.5 | 0.00 | 0.00 | 0.00 | 94 | 1013.7 |
| 20260906041558 | 22 | 62 | 4.8 | 12.9 | 0.00 | 0.00 | 0.00 | 93 | 1013.6 |
| 20260906040054 | 22 | 34 | 4.8 | 16.1 | 0.00 | 0.00 | 0.00 | 93 | 1013.5 |
| 20260906034552 | 22 | 115 | 1.6 | 14.5 | 0.00 | 0.00 | 0.00 | 93 | 1013.3 |
| 20260906033051 | 22 | 82 | 3.2 | 14.5 | 0.00 | 0.00 | 0.00 | 92 | 1013.3 |
| 20260906031550 | 23 | 69 | 3.2 | 12.9 | 0.00 | 0.00 | 0.00 | 92 | 1013.3 |
| 20260906030052 | 23 | 85 | 3.2 | 9.7 | 0.00 | 0.00 | 0.00 | 90 | 1013.4 |
| 20260906024607 | 23 | 24 | 3.2 | 14.5 | 0.00 | 0.00 | 0.00 | 89 | 1013.1 |
| 20260906023054 | 24 | 113 | 6.4 | 17.7 | 0.00 | 0.00 | 0.00 | 89 | 1013.0 |
| 20260906021546 | 25 | 79 | 4.8 | 12.9 | 0.00 | 0.00 | 0.00 | 89 | 1013.0 |
| 20260906020044 | 25 | 69 | 4.8 | 19.3 | 0.00 | 0.00 | 0.00 | 88 | 1012.7 |
| 20260906014550 | 25 | 34 | 4.8 | 16.1 | 0.00 | 0.00 | 0.00 | 87 | 1012.5 |
| 20260906013042 | 26 | 34 | 6.4 | 17.7 | 0.00 | 0.00 | 0.00 | 86 | 1012.3 |
| 20260906011554 | 26 | 63 | 4.8 | 16.1 | 0.00 | 0.00 | 0.00 | 85 | 1012.1 |
| 20260906010100 | 27 | 46 | 8.0 | 22.5 | 0.00 | 0.00 | 0.00 | 84 | 1011.9 |
| 20260906004546 | 27 | 355 | 4.8 | 14.5 | 0.00 | 0.00 | 0.00 | 84 | 1011.7 |
| 20260906003044 | 28 | 5 | 6.4 | 12.9 | 0.00 | 0.00 | 0.00 | 82 | 1011.4 |
| 20260906001558 | 28 | 355 | 9.7 | 17.7 | 0.00 | 0.00 | 0.00 | 80 | 1011.4 |
| 20260906000039 | 28 | 350 | 6.4 | 14.5 | 0.00 | 0.00 | 0.00 | 79 | 1011.4 |
| 20260905234539 | 29 | 5 | 4.8 | 6.4 | 0.00 | 0.00 | 0.00 | 79 | 1011.3 |
| 20260905233039 | 30 | 28 | 3.2 | 8.0 | 0.00 | 0.00 | 0.00 | 76 | 1011.3 |
| 20260905231543 | 30 | 19 | 4.8 | 14.5 | 0.00 | 0.00 | 0.00 | 75 | 1011.1 |
| 20260905230039 | 31 | 5 | 4.8 | 12.9 | 0.00 | 0.00 | 0.00 | 74 | 1011.0 |
| 20260905224544 | 31 | 5 | 3.2 | 14.5 | 0.00 | 0.00 | 0.00 | 74 | 1011.0 |
| 20260905223041 | 31 | 5 | 4.8 | 16.1 | 0.00 | 0.00 | 0.00 | 73 | 1011.0 |
| 20260905221541 | 32 | 40 | 4.8 | 12.9 | 0.00 | 0.00 | 0.00 | 72 | 1011.0 |
| 20260905220036 | 32 | 336 | 6.4 | 12.9 | 0.00 | 0.00 | 0.00 | 73 | 1011.0 |
| 20260905214535 | 32 | 22 | 3.2 | 9.7 | 0.00 | 0.00 | 0.00 | 72 | 1010.9 |
| 20260905213040 | 32 | 51 | 1.6 | 14.5 | 0.00 | 0.00 | 0.00 | 72 | 1010.9 |
| 20260905211542 | 32 | 346 | 3.2 | 8.0 | 0.00 | 0.00 | 0.00 | 72 | 1010.9 |
| 20260905210035 | 32 | 9 | 3.2 | 12.9 | 0.00 | 0.00 | 0.00 | 70 | 1011.1 |
| 20260905204532 | 32 | 15 | 4.8 | 12.9 | 0.00 | 0.00 | 0.00 | 71 | 1011.2 |
| 20260905203045 | 32 | 48 | 6.4 | 14.5 | 0.00 | 0.00 | 0.00 | 71 | 1011.1 |
| 20260905201549 | 32 | 38 | 4.8 | 19.3 | 0.00 | 0.00 | 0.00 | 71 | 1011.1 |
| 20260905200030 | 32 | 9 | 4.8 | 17.7 | 0.00 | 0.00 | 0.00 | 67 | 1011.2 |
| 20260905194528 | 32 | 25 | 3.2 | 12.9 | 0.00 | 0.00 | 0.00 | 70 | 1011.3 |
| 20260905193032 | 33 | 328 | 6.4 | 16.1 | 0.00 | 0.00 | 0.00 | 66 | 1011.2 |
| 20260905191527 | 32 | 318 | 6.4 | 17.7 | 0.00 | 0.00 | 0.00 | 68 | 1011.5 |
| 20260905190021 | 33 | 329 | 6.4 | 16.1 | 0.00 | 0.00 | 0.00 | 67 | 1011.6 |
| 20260905184518 | 32 | 325 | 6.4 | 9.7 | 0.00 | 0.00 | 0.00 | 66 | 1011.8 |
| 20260905183019 | 32 | 335 | 3.2 | 9.7 | 0.00 | 0.00 | 0.00 | 68 | 1011.9 |
| 20260905181517 | 32 | 50 | 4.8 | 17.7 | 0.00 | 0.00 | 0.00 | 69 | 1012.0 |
| 20260905180016 | 32 | 16 | 6.4 | 16.1 | 0.00 | 0.00 | 0.00 | 68 | 1012.1 |
| 20260905174515 | 32 | 303 | 4.8 | 16.1 | 0.00 | 0.00 | 0.00 | 70 | 1012.0 |
| 20260905173011 | 32 | 338 | 4.8 | 16.1 | 0.00 | 0.00 | 0.00 | 70 | 1012.1 |
| 20260905171508 | 32 | 279 | 6.4 | 17.7 | 0.00 | 0.00 | 0.00 | 69 | 1012.2 |
| 20260905170009 | 32 | 315 | 3.2 | 16.1 | 0.00 | 0.00 | 0.00 | 71 | 1012.4 |
| 20260905164504 | 31 | 355 | 3.2 | 17.7 | 0.00 | 0.00 | 0.00 | 72 | 1012.5 |
| 20260905163003 | 31 | 325 | 6.4 | 17.7 | 0.00 | 0.00 | 0.00 | 71 | 1012.5 |